Location: Unspecified
(58.9933°N, 5.6375°E)
Time: 04:49:16
(UTC+02:00)

Cosmos 1674 - Visible Passes

Search period start: 26 April 2015 00:00
Search period end: 06 May 2015 00:00
Orbit: 508 x 533 km, 82.5° (Epoch: 25 April)

Date Brightness Start Highest point End Pass type
(mag) Time Alt. Az. Time Alt. Az. Time Alt. Az.
03 May 5.5 04:41:19 10° SE 04:43:48 17° E 04:46:24 10° NE visible
04 May 5.6 04:27:58 10° ESE 04:30:12 15° E 04:32:34 10° NE visible
05 May 5.6 04:14:39 10° ESE 04:16:36 14° E 04:18:40 10° NE visible
